Weather Roundup
Issued by NWS

Home | Current Version | Previous Version | Graphics & Text | Print | Product List | Glossary Off
Versions: 1 2 3 4 5 6 7 8 9 10 11 12 13 14 15 16 17 18 19 20 21 22 23 24 25 26 27 28 29 30 31 32 33 34 35 36 37 38 39 40 41 42 43 44 45 46 47 48 49 50

537
NZUS93 KARX 201859
HRRWXR

CURRENT HOURLY OBSERVATIONS ACROSS
MUCH OF THE UPPER MISSISSIPPI VALLEY
NATIONAL WEATHER SERVICE LA CROSSE WI
100 PM CST MON NOV 20 2017


...SOUTHEAST MINNESOTA...


CITY           SKY/WX    TMP DP  RH WIND       PRES   REMARKS
ROCHESTER      MOSUNNY   47  33  58 S24G33    29.51F
ROCHESTER/MAYO FAIR      47  30  51 S20G28    29.52F
WINONA         CLOUDY    52  32  46 SW10G16   29.54F
AUSTIN         NOT AVBL
ALBERT LEA     CLOUDY    48  27  43 SW13G18   29.51F
DODGE CENTER   CLOUDY    46  30  53 S21       29.49F
PRESTON        SUNNY     47  31  52 S18G30    29.55F
OWATONNA       CLOUDY    46  32  57 S18       29.49F
FARIBAULT      MOSUNNY   45  30  57 S9        29.51R
$$

...ELSEWHERE IN MINNESOTA...


CITY           SKY/WX    TMP DP  RH WIND       PRES   REMARKS
MINNEAPOLIS    CLOUDY    45  30  55 VRB6      29.49F
INTNL FALLS    CLOUDY    39  25  57 S3        29.28F
DULUTH         CLOUDY    32  27  81 SE9       29.39F WCI  24
RED WING       MOSUNNY   48  27  43 SW9       29.50F
REDWOOD FALLS  CLOUDY    47  26  44 W9        29.48S
MANKATO        CLOUDY    46  30  53 SW14      29.50F
WORTHINGTON    CLOUDY    45  27  49 SW16      29.49F
FAIRMONT       CLOUDY    48  29  47 SW17      29.50F
$$

...SOUTHWEST WISCONSIN...


CITY           SKY/WX    TMP DP  RH WIND       PRES   REMARKS
LA CROSSE      CLOUDY    50  30  46 S21G28    29.56F
PRAIRIE DU CHI CLOUDY    52  29  40 S8        29.64F
BOSCOBEL       SUNNY     53  30  41 S12       29.64F
LONE ROCK      SUNNY     51  32  48 S15       29.65F
PLATTEVILLE    SUNNY     50  33  53 S18       29.69F
FORT MC COY    CLOUDY    49  31  50 S10       29.57F
CAMP DOUGLAS   PTSUNNY   48  32  53 S12       29.58F
MAUSTON-NEW LI CLOUDY    49  31  49 S12G17    29.60F
VIROQUA        FAIR      47  32  55 S13G18    29.58F
WIS DELLS      SUNNY     48  29  47 S16       29.63F
$$

...ELSEWHERE IN WISCONSIN...


CITY           SKY/WX    TMP DP  RH WIND       PRES   REMARKS
MILWAUKEE      PTSUNNY   50  31  48 SW22      29.73F
MADISON        CLOUDY    47  31  53 S13G22    29.68F
GREEN BAY      CLOUDY    42  32  67 S14       29.65F
EAU CLAIRE     NOT AVBL
BLACK RVR FLS  FAIR      50  26  38 S9        29.55F
MEDFORD        CLOUDY    41  29  62 SE8       29.54F
WAUSAU         CLOUDY    43  28  55 S9        29.55F
WIS RAPIDS     CLOUDY    49  29  46 SW13G22   29.59F
MARSHFIELD     CLOUDY    46  28  49 SE13      29.54F
RICE LAKE      CLOUDY    41  29  62 SE10      29.50F
$$

...NORTHEAST IOWA...


CITY           SKY/WX    TMP DP  RH WIND       PRES   REMARKS
WATERLOO       CLOUDY    55  30  38 S18       29.61F
DUBUQUE        SUNNY     51  32  48 SW20G29   29.68F
DECORAH        CLOUDY    50  32  50 S14G26    29.58F
MASON CITY     CLOUDY    53  29  39 SW21G30   29.55F
CHARLES CITY   CLOUDY    52  30  43 S17G26    29.59F
OELWEIN        CLOUDY    52  34  50 S24       29.64F
$$

...ELSEWHERE IN IOWA...


CITY           SKY/WX    TMP DP  RH WIND       PRES   REMARKS
DES MOINES     PTSUNNY   61  25  25 S21G36    29.64F
IOWA CITY      SUNNY     61  30  31 SW22G29   29.72F
FORT DODGE     CLOUDY    54  29  38 SW25      29.56F
MARSHALLTOWN   CLOUDY    58  31  35 SW22G32   29.61F
CEDAR RAPIDS   SUNNY     59  29  31 SW21G29   29.67F
$$

...NORTHERN ILLINOIS...


CITY           SKY/WX    TMP DP  RH WIND       PRES   REMARKS
CHICAGO-OHARE  MOSUNNY   50  31  48 SW21G31   29.80F
CHICAGO-MIDWAY NOT AVBL
MOLINE         SUNNY     57  31  37 SW20G29   29.75F
ROCKFORD       PTSUNNY   51  32  48 S18       29.78F
PEORIA         SUNNY     56  32  40 SW16      29.86F
$$

NOTE: "FAIR" INDICATES FEW OR NO CLOUDS BELOW 12,000 FEET WITH NO
SIGNIFICANT WEATHER AND/OR OBSTRUCTIONS TO VISIBILITY. WIND
SPEEDS ARE IN MILES-PER-HOUR.




USA.gov is the U.S. government's official web portal to all federal, state and local government web resources and services.